Location: Unspecified
(0.0000°N, 0.0000°E)
Time: 14:51:40
(UTC+00:00)

Altair - Pass Details

Date: 28 October 2021
Orbit: 1502 x 1682 km, 47.2° (Epoch: 26 November)

Event Time Altitude Azimuth Distance (km) Brightness Sun altitude
Rises 11:33:10 0° 302° (WNW) 4,896 10.0 76.5°
Reaches altitude 10° 11:36:36 10° 294° (WNW) 3,923 9.7 76.6°
Maximum altitude 11:45:44 39° 230° (SW) 2,347 9.4 76.7°
Drops below altitude 10° 11:54:55 10° 164° (SSE) 3,926 10.0 76.4°
Sets 11:58:24 0° 156° (SSE) 4,900 10.3 76.2°
